TimeCST,TemperatureF,Dew PointF,Humidity,Sea Level PressureIn,VisibilityMPH,Wind Direction,Wind SpeedMPH,Gust SpeedMPH,PrecipitationIn,Events,Conditions,WindDirDegrees,DateUTC
12:53 AM,72.0,66.0,81,29.83,10.0,SSE,15.0,-,N/A,,Overcast,160,2012-11-11 06:53:00
1:53 AM,70.0,64.9,84,29.82,10.0,SSE,15.0,-,N/A,,Overcast,160,2012-11-11 07:53:00
2:53 AM,71.1,66.0,84,29.81,10.0,South,13.8,-,N/A,,Overcast,170,2012-11-11 08:53:00
3:53 AM,71.1,66.0,84,29.82,10.0,South,16.1,20.7,N/A,,Overcast,170,2012-11-11 09:53:00
4:53 AM,70.0,66.0,87,29.83,10.0,South,8.1,-,N/A,,Overcast,170,2012-11-11 10:53:00
5:53 AM,68.0,66.0,93,29.85,10.0,South,6.9,-,N/A,,Mostly Cloudy,170,2012-11-11 11:53:00
6:04 AM,68.0,66.2,94,29.89,10.0,SSE,8.1,-,N/A,,Scattered Clouds,150,2012-11-11 12:04:00
6:53 AM,66.9,66.0,97,29.86,10.0,SSE,6.9,-,N/A,,Mostly Cloudy,150,2012-11-11 12:53:00
7:53 AM,69.1,66.9,93,29.86,10.0,SSE,5.8,-,N/A,,Scattered Clouds,160,2012-11-11 13:53:00
8:53 AM,72.0,66.0,81,29.88,10.0,SSE,13.8,20.7,N/A,,Mostly Cloudy,160,2012-11-11 14:53:00
9:53 AM,73.0,64.9,76,29.90,10.0,South,12.7,20.7,N/A,,Mostly Cloudy,180,2012-11-11 15:53:00
10:53 AM,77.0,63.0,62,29.89,10.0,South,19.6,-,N/A,,Mostly Cloudy,180,2012-11-11 16:53:00
11:53 AM,79.0,63.0,58,29.87,10.0,South,10.4,-,N/A,,Mostly Cloudy,190,2012-11-11 17:53:00
12:53 PM,79.0,61.0,54,29.86,10.0,SW,12.7,18.4,N/A,,Overcast,230,2012-11-11 18:53:00
1:53 PM,79.0,62.1,56,29.85,10.0,WSW,10.4,-,N/A,,Overcast,240,2012-11-11 19:53:00
2:53 PM,80.1,63.0,56,29.85,10.0,WSW,8.1,-,N/A,,Mostly Cloudy,240,2012-11-11 20:53:00
3:53 PM,80.1,63.0,56,29.87,10.0,West,6.9,-,N/A,,Overcast,280,2012-11-11 21:53:00
4:53 PM,79.0,63.0,58,29.89,10.0,WNW,3.5,-,N/A,,Scattered Clouds,290,2012-11-11 22:53:00
5:53 PM,73.0,63.0,71,29.92,10.0,NNW,6.9,-,N/A,,Scattered Clouds,330,2012-11-11 23:53:00
6:53 PM,72.0,46.0,40,29.97,10.0,NNW,15.0,-,N/A,,Partly Cloudy,340,2012-11-12 00:53:00
7:53 PM,69.1,39.9,35,30.01,10.0,North,10.4,-,N/A,,Partly Cloudy,350,2012-11-12 01:53:00
8:53 PM,68.0,37.9,33,30.06,10.0,NNE,4.6,-,N/A,,Mostly Cloudy,20,2012-11-12 02:53:00
9:53 PM,68.0,36.0,31,30.09,10.0,North,8.1,-,N/A,,Overcast,10,2012-11-12 03:53:00
10:53 PM,68.0,33.1,27,30.11,10.0,NNE,10.4,19.6,N/A,,Mostly Cloudy,20,2012-11-12 04:53:00
11:53 PM,66.0,28.9,25,30.14,10.0,North,11.5,24.2,N/A,,Mostly Cloudy,10,2012-11-12 05:53:00